Terug naar catalogus

CZ-6A DEB

ActiefPO
NORAD 60885·DEBRIS·🇨🇳 China

Gelanceerd Aug 6, 2024 vanaf Taiyuan Satellite Launch Center

Loading…

Volgende Passages (komende 24 uur)

TLE

VersSource: Space-Track

Epoch: Sep 14, 2026, 06:36 UTC

1 60885U 24140KQ  26257.27503495  .00000697  00000-0  24093-3 0  9998
2 60885  88.9681 260.0700 0037093 314.6425  45.1750 14.34375564108385

Volg CZ-6A DEB in realtime met AllMySat

Download on the App Store